Location: G�ppingen
(48.7089°N, 9.6563°E)
Time: 23:45:46
(UTC+02:00)

M-CUBED/EXP-1 PRIME - Pass Details

Date: 20 March 2019
Orbit: 430 x 671 km, 101.7° (Epoch: 24 April)

Event Time Altitude Azimuth Distance (km) Brightness Sun altitude
Rises 20:41:40 0° 18° (NNE) 2,896 ? -21.2°
Reaches altitude 10° 20:43:49 10° 17° (NNE) 2,017 ? -21.5°
Maximum altitude 20:48:13 77° 293° (WNW) 673 ? -22.2°
Drops below altitude 10° 20:52:47 10° 206° (SSW) 2,086 ? -22.8°
Sets 20:55:02 0° 205° (SSW) 3,004 ? -23.2°
